[[{"header":{"parameterUnit":"m.s-1","parameterCategory":1,"la1":30.2991,"la2":30.254,"lo1":-89.0895,"lo2":-89.0444,"dy":0.0017,"dx":0.0017,"nx":28,"ny":28,"refTime":"2023-11-15T03:00:00:Z","depth":0,"parameterNumber":2,"parameterNumberName":"U-component_of_WINDS"},"data":[0,0,0,0,0,0,0,0,0,0,0,0,0,0,0,0,0,0,0,0,0,0,0,0,0,0,0,0,0,0,0,0,0,0,0,0,0,0,0,0,0,0,0,0,0,0,0,0,0,0,0,0,0,0,0,0,0,0,-4.7684,-4.7685,0,-4.7781,-4.7782,-4.7783,-4.771,-4.7707,-4.7704,-4.7701,-4.78,-4.7805,-4.7811,0,0,0,0,0,0,0,0,0,0,0,0,0,-4.7436,-4.744,-4.7684,-4.7685,-4.7687,-4.7781,-4.7782,-4.7784,-4.7711,-4.7707,-4.7703,-4.77,-4.7798,-4.7804,-4.7811,0,0,0,0,0,0,0,0,0,0,0,0,0,-4.7539,-4.7442,-4.7684,-4.7662,-4.7661,-4.7781,-4.7782,-4.7784,-4.7712,-4.7707,-4.7702,-4.7698,-4.7796,-4.7804,-4.7812,-4.7959,0,0,-4.7838,-4.7841,0,0,0,0,0,0,0,0,-4.7533,-4.7548,-4.7664,-4.7664,-4.7663,-4.7729,-4.7731,-4.7843,-4.7713,-4.7692,-4.7701,-4.7695,-4.778,-4.7789,-4.7818,-4.7964,-4.7968,-4.7838,-4.7843,-4.7847,-4.7849,0,0,0,0,0,0,0,-4.7526,-4.7544,-4.7723,-4.7666,-4.7665,-4.7647,-4.7656,-4.7752,-4.7762,-4.7694,-4.7689,-4.7701,-4.7779,-4.781,-4.782,-4.7969,-4.7838,-4.7846,-4.7851,-4.7854,-4.8241,-4.8246,0,0,0,0,0,0,-4.7521,-4.7538,-4.7719,-4.7725,-4.7585,-4.7655,-4.7666,-4.7712,-4.776,-4.7763,-4.7705,-4.7697,-4.7798,-4.781,-4.7823,-4.7999,-4.7847,-4.7855,-4.786,-4.8236,-4.8243,-4.8248,0,0,0,0,0,0,-4.7516,-4.7538,-4.7716,-4.7631,-4.7652,-4.7664,-4.7718,-4.7717,-4.7748,-4.7769,-4.777,-4.7736,-4.7795,-4.7811,-4.7926,-4.8002,-4.7859,-4.7866,-4.823,-4.8238,-4.8245,-4.8352,0,0,0,0,0,0,-4.7509,-4.7537,-4.7593,-4.7632,-4.7657,-4.7818,-4.7722,-4.7722,-4.7763,-4.7754,-4.7798,-4.7801,-4.7792,-4.7914,-4.7934,-4.801,-4.7873,-4.8223,-4.8234,-4.8243,-4.8342,-4.8363,-4.8381,0,0,0,0,0,-4.7501,-4.7619,-4.7596,-4.7619,-4.7727,-4.7822,-4.7836,-4.7824,-4.7769,-4.7826,-4.7839,-4.7799,-4.799,-4.7926,-4.7949,-4.8029,-4.8218,-4.8231,-4.8242,-4.8334,-4.8359,-4.838,0,0,0,0,0,0,-4.7588,-4.7624,-4.7599,-4.7733,-4.7775,-4.781,-4.7881,-4.7851,-4.791,-4.7899,-4.7881,-4.7892,-4.8013,-4.8031,-4.796,-4.8174,-4.8095,-4.8112,-4.8157,-4.8181,-4.82,-4.8194,-4.788,0,0,0,0,0,-4.7623,-4.7697,-4.7724,-4.784,-4.7862,-4.7868,-4.7909,-4.7896,-4.7939,-4.7956,-4.7978,-4.8021,-4.809,-4.8137,-4.8202,-4.8344,-4.8353,-4.841,-4.8429,-4.8445,-4.846,-4.8538,-4.8564,-4.8287,-4.8287,-4.8287,0,0,-4.7695,-4.7724,-4.7772,-4.7858,-4.7889,-4.7967,-4.7884,-4.7969,-4.8026,-4.7969,-4.808,-4.8097,-4.8144,-4.8273,-4.8331,-4.8293,-4.8538,-4.846,-4.8472,-4.8479,-4.8553,-4.8579,-4.8602,-4.8295,-4.8294,-4.8292,0,0,-4.7868,-4.7897,-4.7997,-4.803,-4.8078,-4.8081,-4.8105,-4.8145,-4.8154,-4.8265,-4.8224,-4.8291,-4.8411,-4.8446,-4.848,-4.8666,-4.8632,-4.8687,-4.8789,-4.8865,-4.8887,-4.8906,-4.8974,-4.8998,-4.8702,-4.8703,-4.8703,0,-4.7952,-4.8068,-4.8052,-4.8141,-4.8181,-4.8133,-4.8234,-4.8267,-4.8334,-4.8362,-4.8318,-4.8468,-4.8495,-4.8633,-4.8679,-4.8707,-4.8735,-4.8683,-4.8885,-4.8904,-4.8922,-4.8986,-4.9011,-4.8709,-4.8708,-4.8708,-4.8707,0,-4.817,-4.825,-4.8326,-4.8392,-4.844,-4.8535,-4.8534,-4.8584,-4.8567,-4.8574,-4.8688,-4.8719,-4.879,-4.8822,-4.8806,-4.8958,-4.8933,-4.8887,-4.8808,-4.8955,-4.9015,-4.904,-4.8719,-4.8716,-4.8714,-4.8713,0,0,-4.8401,-4.8458,-4.8486,-4.8516,-4.8565,-4.8627,-4.872,-4.879,-4.8834,-4.8881,-4.8959,-4.9061,-4.902,-4.9058,-4.9045,-4.9112,-4.9259,-4.9058,-4.9059,-4.9095,-4.9429,-4.9465,-4.9494,-4.9235,-4.924,-4.9244,-4.9426,0,-4.8577,-4.8739,-4.8728,-4.8881,-4.8955,-4.8911,-4.8991,-4.903,-4.904,-4.9105,-4.9115,-4.9188,-4.9127,-4.915,-4.9214,-4.9227,-4.9326,-4.9214,-4.9308,-4.9312,-4.93,-4.9525,-4.9562,-4.9733,-4.9449,-4.9453,-4.9456,0,-4.8804,-4.8861,-4.9021,-4.906,-4.9091,-4.9164,-4.9228,-4.929,-4.9333,-4.9335,-4.9378,-4.9355,-4.9448,-4.9366,-4.9495,-4.9419,-4.9457,-4.947,-4.9476,-4.9486,-4.9394,-4.9542,-4.9787,-4.9813,-4.9493,-4.949,-4.9487,0,-4.8959,-4.9074,-4.9186,-4.9212,-4.926,-4.9313,-4.9335,-4.9374,-4.9417,-4.9472,-4.95,-4.9565,-4.9601,-4.9652,-4.9646,-4.9587,-4.9778,-4.9695,-4.9783,-4.9784,-4.9827,-4.9825,-5.0083,-4.9849,-4.9848,-4.9848,-4.9847,0,-4.9158,-4.9258,-4.9256,-4.9325,-4.9436,-4.9421,-4.9532,-4.9548,-4.9583,-4.9654,-4.9618,-4.9685,-4.9673,-4.9741,-4.9737,-4.9845,-4.9861,-4.9866,-4.9864,-4.987,-4.987,-4.9896,-4.9885,-4.9855,-4.9853,-4.9852,-4.9851,0,-4.935,-4.9352,-4.9471,-4.9506,-4.9518,-4.9598,-4.9628,-4.9693,-4.97,-4.979,-4.981,-4.9821,-4.9898,-4.9897,-4.9985,-4.9983,-5.0116,-5.0099,-5.0102,-5.0099,-5.0187,-5.018,-5.0473,-5.0511,-5.0251,-5.0253,-5.0255,0,-4.9477,-4.9554,-4.9598,-4.9643,-4.9669,-4.9742,-4.9786,-4.9774,-4.9821,-4.9877,-4.9935,-5.0009,-5.0068,-5.0194,-5.0209,-5.0277,-5.0263,-5.0361,-5.0272,-5.0277,-5.0266,-5.0262,-5.027,-5.0378,-5.0381,-5.0384,-5.0386,0,-4.9704,-4.9702,-4.9766,-4.9832,-4.9886,-4.9936,-4.9983,-5.0022,-5.0016,-5.0071,-5.015,-5.0195,-5.0285,-5.036,-5.0425,-5.0447,-5.0417,-5.0413,-5.0437,-5.0445,-5.0444,-5.0447,-5.015,-5.0407,-5.0405,-5.0403,-5.0402,-5.0401,-4.9869,-4.9935,-4.9977,-5.005,-5.0084,-5.0129,-5.0192,-5.0206,-5.0272,-5.0345,-5.0334,-5.0423,-5.0464,-5.0548,-5.0576,-5.0646,-5.0611,-5.0646,-5.0655,-5.0664,-5.0675,-5.0432,-5.0657,-5.0656,-5.0656,-5.0655,-5.0655,0,-5.0095,-5.012,-5.0187,-5.0255,-5.0313,-5.0278,-5.0328,-5.0378,-5.0457,-5.0498,-5.0557,-5.0648,-5.072,-5.0741,-5.0811,-5.0862,-5.085,-5.0881,-5.0878,-5.0884,-5.0701,-5.0674,-5.089,-5.089,-5.089,-5.089,-5.089,-5.089,-5.022,-5.033,-5.0333,-5.046,-5.0483,-5.057,-5.0602,-5.0643,-5.0676,-5.078,-5.084,-5.0853,-5.0886,-5.0958,-5.1022,-5.1026,-5.1054,-5.1092,-5.1091,-5.092,-5.0896,-5.0874,-5.0848,-5.1098,-5.1098,-5.1268,-5.1269,-5.1271]},{"header":{"parameterUnit":"m.s-1","parameterCategory":1,"la1":30.2991,"la2":30.254,"lo1":-89.0895,"lo2":-89.0444,"dy":0.0017,"dx":0.0017,"nx":28,"ny":28,"refTime":"2023-11-15T03:00:00:Z","depth":0,"parameterNumber":3,"parameterNumberName":"V-component_of_WINDS"},"data":[0,0,0,0,0,0,0,0,0,0,0,0,0,0,0,0,0,0,0,0,0,0,0,0,0,0,0,0,0,0,0,0,0,0,0,0,0,0,0,0,0,0,0,0,0,0,0,0,0,0,0,0,0,0,0,0,0,0,-6.1658,-6.1658,0,-6.1656,-6.1656,-6.1656,-6.1546,-6.1543,-6.154,-6.1538,-6.1535,-6.1538,-6.154,0,0,0,0,0,0,0,0,0,0,0,0,0,-6.1566,-6.1569,-6.1658,-6.1658,-6.1658,-6.1656,-6.1656,-6.1656,-6.1547,-6.1543,-6.154,-6.1536,-6.1534,-6.1537,-6.154,0,0,0,0,0,0,0,0,0,0,0,0,0,-6.159,-6.157,-6.1658,-6.1603,-6.1598,-6.1656,-6.1656,-6.1656,-6.1547,-6.1543,-6.1539,-6.1535,-6.1533,-6.1537,-6.1541,-6.1651,0,0,-6.1553,-6.1554,0,0,0,0,0,0,0,0,-6.1588,-6.1593,-6.1612,-6.1607,-6.1602,-6.1597,-6.1623,-6.1654,-6.1548,-6.1567,-6.1538,-6.1533,-6.1559,-6.1561,-6.157,-6.1651,-6.1651,-6.1553,-6.1555,-6.1557,-6.1558,0,0,0,0,0,0,0,-6.1587,-6.1593,-6.1657,-6.1612,-6.1606,-6.1578,-6.1577,-6.1628,-6.1587,-6.1565,-6.1557,-6.1558,-6.1556,-6.1566,-6.1569,-6.1651,-6.1553,-6.1556,-6.1559,-6.156,-6.1821,-6.1826,0,0,0,0,0,0,-6.1593,-6.1592,-6.1657,-6.1657,-6.1584,-6.1584,-6.1582,-6.1603,-6.1586,-6.1579,-6.1562,-6.1553,-6.1562,-6.1564,-6.1568,-6.1696,-6.1557,-6.1561,-6.1563,-6.1817,-6.1822,-6.1827,0,0,0,0,0,0,-6.1592,-6.16,-6.1658,-6.1623,-6.1628,-6.159,-6.1614,-6.1605,-6.1615,-6.1584,-6.1576,-6.158,-6.1558,-6.1563,-6.1631,-6.1694,-6.1562,-6.1566,-6.1811,-6.1818,-6.1825,-6.1952,0,0,0,0,0,0,-6.1589,-6.16,-6.1642,-6.1624,-6.163,-6.1721,-6.1618,-6.1608,-6.1623,-6.1611,-6.1599,-6.1593,-6.1555,-6.1626,-6.1635,-6.1697,-6.1569,-6.1805,-6.1814,-6.1823,-6.1942,-6.1962,-6.198,0,0,0,0,0,-6.1587,-6.1678,-6.1645,-6.1653,-6.1682,-6.1725,-6.1728,-6.1683,-6.1628,-6.167,-6.1649,-6.1593,-6.1686,-6.1634,-6.1643,-6.1707,-6.1801,-6.1812,-6.1822,-6.1934,-6.1958,-6.1979,0,0,0,0,0,0,-6.1704,-6.1675,-6.1637,-6.1726,-6.1729,-6.1706,-6.1757,-6.1711,-6.173,-6.1718,-6.1661,-6.1659,-6.1737,-6.1728,-6.1671,-6.1813,-6.1734,-6.1746,-6.1815,-6.1839,-6.1857,-6.1858,-6.1572,0,0,0,0,0,-6.174,-6.1778,-6.175,-6.1831,-6.1834,-6.1796,-6.1813,-6.1778,-6.1779,-6.178,-6.1764,-6.1767,-6.1796,-6.1817,-6.1842,-6.194,-6.1936,-6.1989,-6.2008,-6.2023,-6.2035,-6.2086,-6.211,-6.1861,-6.1861,-6.1861,0,0,-6.1816,-6.1804,-6.1832,-6.1855,-6.1853,-6.1893,-6.1798,-6.1845,-6.1874,-6.1787,-6.185,-6.1839,-6.1838,-6.1922,-6.1958,-6.1917,-6.2103,-6.2037,-6.2049,-6.2053,-6.2099,-6.2123,-6.2144,-6.1868,-6.1867,-6.1866,0,0,-6.1973,-6.1969,-6.2035,-6.2035,-6.2033,-6.2007,-6.2023,-6.2008,-6.1997,-6.206,-6.1995,-6.2029,-6.2081,-6.2083,-6.2091,-6.2249,-6.2198,-6.2258,-6.2358,-6.2408,-6.2427,-6.2444,-6.2501,-6.2522,-6.227,-6.227,-6.2271,0,-6.2067,-6.2126,-6.2075,-6.2126,-6.2138,-6.2061,-6.2128,-6.213,-6.2137,-6.2147,-6.2101,-6.2165,-6.2158,-6.2241,-6.228,-6.2289,-6.2305,-6.226,-6.2429,-6.2445,-6.246,-6.2514,-6.2535,-6.2278,-6.2277,-6.2276,-6.2276,0,-6.2241,-6.2282,-6.2336,-6.2345,-6.2362,-6.2421,-6.238,-6.2403,-6.2367,-6.2345,-6.241,-6.24,-6.2422,-6.2439,-6.2403,-6.2517,-6.2492,-6.2439,-6.2358,-6.2492,-6.2541,-6.2561,-6.2288,-6.2286,-6.2284,-6.2282,0,0,-6.2474,-6.2453,-6.2474,-6.2476,-6.2468,-6.2499,-6.2554,-6.2576,-6.2597,-6.2604,-6.2649,-6.2694,-6.2645,-6.2654,-6.2618,-6.2662,-6.2788,-6.2603,-6.2602,-6.2638,-6.2912,-6.2953,-6.2977,-6.2754,-6.2758,-6.2761,-6.2912,0,-6.2626,-6.2719,-6.2675,-6.2773,-6.2811,-6.2737,-6.2785,-6.2785,-6.2766,-6.2795,-6.2774,-6.2807,-6.2739,-6.2744,-6.2785,-6.2764,-6.2842,-6.2753,-6.2795,-6.2797,-6.2798,-6.3003,-6.3046,-6.319,-6.2931,-6.2934,-6.2937,0,-6.2817,-6.2832,-6.2934,-6.2919,-6.2933,-6.2977,-6.2992,-6.3021,-6.3019,-6.3002,-6.3013,-6.2966,-6.3018,-6.2938,-6.301,-6.295,-6.2964,-6.2957,-6.2961,-6.2964,-6.2876,-6.3011,-6.3234,-6.3256,-6.2966,-6.2964,-6.2962,0,-6.2977,-6.3023,-6.3089,-6.3094,-6.3078,-6.311,-6.3105,-6.3099,-6.3114,-6.3128,-6.3137,-6.3157,-6.3168,-6.3184,-6.3145,-6.309,-6.3222,-6.3138,-6.3209,-6.3211,-6.3241,-6.324,-6.347,-6.325,-6.325,-6.3249,-6.3249,0,-6.3153,-6.3218,-6.3161,-6.3202,-6.3273,-6.3221,-6.3292,-6.3279,-6.3274,-6.3311,-6.3249,-6.3285,-6.323,-6.326,-6.3229,-6.3293,-6.3299,-6.3286,-6.3278,-6.3292,-6.3294,-6.3302,-6.3291,-6.3255,-6.3254,-6.3253,-6.3252,0,-6.3344,-6.3308,-6.3376,-6.3354,-6.3351,-6.3404,-6.3385,-6.3422,-6.3399,-6.3446,-6.3455,-6.3418,-6.3451,-6.3412,-6.3442,-6.3421,-6.3508,-6.3484,-6.3509,-6.3502,-6.3575,-6.3569,-6.3819,-6.3849,-6.361,-6.3612,-6.3614,0,-6.3458,-6.3507,-6.3491,-6.3511,-6.3509,-6.3543,-6.3558,-6.3509,-6.3527,-6.3529,-6.3566,-6.3593,-6.3612,-6.3668,-6.3644,-6.3666,-6.3643,-6.3728,-6.3646,-6.3659,-6.3644,-6.3642,-6.3647,-6.3746,-6.3749,-6.3751,-6.3753,0,-6.3666,-6.3645,-6.367,-6.3689,-6.3709,-6.3721,-6.3728,-6.3748,-6.3697,-6.3721,-6.3753,-6.3768,-6.3798,-6.3826,-6.3842,-6.3836,-6.3787,-6.3779,-6.3797,-6.3813,-6.3825,-6.382,-6.3555,-6.3774,-6.3772,-6.377,-6.3769,-6.3768,-6.3822,-6.3862,-6.3856,-6.3886,-6.3886,-6.3894,-6.3928,-6.3908,-6.3934,-6.3955,-6.3924,-6.3965,-6.3961,-6.3977,-6.3977,-6.4008,-6.3971,-6.3996,-6.4003,-6.401,-6.4022,-6.382,-6.401,-6.401,-6.4009,-6.4008,-6.4008,0,-6.4027,-6.4019,-6.4047,-6.4059,-6.4082,-6.4032,-6.4038,-6.406,-6.4097,-6.4098,-6.4118,-6.4155,-6.4182,-6.416,-6.4182,-6.4211,-6.4189,-6.4219,-6.4217,-6.4216,-6.4053,-6.4036,-6.4237,-6.4237,-6.4237,-6.4236,-6.4236,-6.4236,-6.4136,-6.42,-6.4179,-6.4242,-6.4234,-6.4274,-6.4281,-6.4288,-6.4288,-6.4333,-6.4355,-6.434,-6.4331,-6.4352,-6.4375,-6.4367,-6.4379,-6.4417,-6.4402,-6.425,-6.4228,-6.4206,-6.419,-6.442,-6.442,-6.4562,-6.4563,-6.4564]}]]